Flag for United Kingdom Weather past 2 weeks in West Bromwich, England, United Kingdom

Now
73 °F

Sunny.


Feels Like: 77 °F
Forecast: 57 / 77 °F
Wind: 10 mph from East

Location: Birmingham / Airport

Current Time: Jul 24, 2014 at 9:28:04 PM

Latest Report: Jul 24, 2014 at 8:50 PM


Visibility: 10 mi

Pressure: 30.07 "Hg

Humidity: 44%

Dew point: 50 °F

Location of West BromwichLocation

Historic Weather in West Bromwich — Graph

°F

West Bromwich temperature yesterday

Maximum temperature yesterday: 81 °F (at 2:50 PM)
Minimum temperature yesterday: 59 °F (at 2:50 AM)
Average temperature yesterday: 69 °F

Past Weeks' High & Low Weather Summary

 TemperatureHumidityPressure
High82 °F (Jul 24, 3:50 PM)100% (Jul 17, 1:20 AM)30.30 "Hg (Jul 17, 1:20 AM)
Low54 °F (Jul 14, 2:50 AM)37% (Jul 24, 3:50 PM)29.74 "Hg (Jul 13, 4:20 AM)
Average67 °F71%30.01 "Hg
* Reported Jul 9 8:20 PM — Jul 24 8:20 PM, West Bromwich, Weather by CustomWeather, © 2014

Note: Actual official high and low records may vary slightly from our data, if they occured in-between our weather recording intervals... More about our weather records

Advertising

West Bromwich weather history for previous 24 hours

 ConditionsComfort  
Time TempWeatherWind HumidityBarometerVisibility
8:20 PM
Jul 24
75 °FSunny.12 mph47%30.07 "Hg10 mi
7:50 PM77 °FSunny.10 mph51%30.07 "Hg10 mi
7:20 PM79 °FPassing clouds.12 mph45%30.04 "HgN/A
6:50 PM79 °FSunny.13 mph39%30.04 "Hg10 mi
6:20 PM79 °FPassing clouds.13 mph42%30.04 "HgN/A
5:50 PM81 °FSunny.13 mph39%30.04 "Hg10 mi
5:20 PM81 °FSunny.14 mph39%30.04 "Hg10 mi
4:50 PM81 °FPassing clouds.12 mph39%30.04 "HgN/A
4:20 PM82 °FSunny.13 mph37%30.04 "Hg10 mi
3:50 PM82 °FSunny.13 mph37%30.07 "Hg10 mi
3:20 PM81 °FSunny.12 mph39%30.07 "Hg10 mi
2:50 PM81 °FSunny.12 mph39%30.07 "Hg10 mi
2:20 PM79 °FScattered clouds.9 mph48%30.07 "HgN/A
1:50 PM79 °FPassing clouds.12 mph51%30.09 "HgN/A
1:20 PM77 °FScattered clouds.10 mph54%30.09 "HgN/A
12:50 PM75 °FPassing clouds.10 mph61%30.09 "HgN/A
12:20 PM73 °FPassing clouds.9 mph65%30.09 "HgN/A
11:50 AM70 °FPassing clouds.8 mph73%30.12 "Hg6 mi
11:20 AM68 °FPassing clouds.8 mph78%30.12 "Hg5 mi
10:50 AM66 °FPartly sunny.9 mph78%30.12 "Hg4 mi
10:20 AM66 °FPartly sunny.10 mph78%30.12 "Hg4 mi
9:50 AM64 °FPartly sunny.12 mph83%30.12 "Hg4 mi
9:20 AM63 °FPartly sunny.10 mph88%30.12 "Hg3 mi
8:50 AM63 °FPartly sunny.9 mph83%30.12 "Hg3 mi
8:20 AM63 °FPartly sunny.8 mph83%30.12 "Hg3 mi
7:50 AM61 °FPartly sunny.9 mph88%30.12 "Hg3 mi
7:20 AM61 °FPartly sunny.9 mph88%30.12 "Hg2 mi
6:50 AM61 °FPartly sunny.8 mph88%30.12 "Hg2 mi
6:20 AM59 °FLow clouds.10 mph94%30.09 "Hg2 mi
5:50 AM59 °FLow clouds.10 mph94%30.09 "Hg2 mi
5:20 AM59 °FLow clouds.8 mph94%30.09 "Hg2 mi
4:50 AM59 °FPassing clouds.8 mph94%30.09 "Hg2 mi
4:20 AM59 °FPassing clouds.6 mph94%30.09 "Hg2 mi
3:50 AM59 °FHaze.6 mph94%30.09 "Hg2 mi
3:20 AM59 °FHaze.6 mph94%30.12 "Hg3 mi
2:50 AM59 °FCool.7 mph94%30.12 "Hg4 mi
2:20 AM61 °FCool.5 mph88%30.12 "HgN/A
1:50 AM61 °FCool.5 mph88%30.12 "HgN/A
1:20 AM63 °FClear.6 mph83%30.12 "Hg10 mi
12:50 AM63 °FPassing clouds.6 mph77%30.12 "HgN/A
12:20 AM64 °FClear.7 mph78%30.12 "Hg10 mi
11:50 PM
Jul 23
64 °FClear.8 mph78%30.12 "Hg10 mi
11:20 PM66 °FClear.7 mph68%30.12 "Hg10 mi
10:50 PM68 °FPassing clouds.6 mph69%30.12 "HgN/A
10:20 PM68 °FClear.7 mph69%30.12 "Hg10 mi
9:50 PM70 °FSunny.8 mph69%30.12 "Hg10 mi
9:20 PM72 °FPassing clouds.7 mph65%30.12 "HgN/A
Weather by CustomWeather, © 2014

See weather overviewHow to use our weather pages